Flag for Germany Weather past 2 weeks in Rostock, Mecklenburg-Western Pomerania, Germany

Now
58 °F

Overcast.


Feels Like: 59 °F
Forecast: 54 / 67 °F
Wind: 3 mph from Southwest

Location: Rostock-Warnemuende

Current Time: Aug 21, 2014 at 8:38:27 PM

Latest Report: Aug 21, 2014 at 8:00 PM


Visibility: 31 mi

Pressure: 29.93 "Hg

Humidity: 68%

Dew point: 48 °F

Location of RostockLocation

Historic Weather in Rostock — Graph

°F

Rostock temperature yesterday

Maximum temperature yesterday: 63 °F (at 2:00 PM)
Minimum temperature yesterday: 52 °F (at 4:00 AM)
Average temperature yesterday: 56 °F

Past Weeks' High & Low Weather Summary

 TemperatureHumidityPressure
High76 °F (Aug 7, 12:00 PM)95% (Aug 8, 6:00 AM)30.01 "Hg (Aug 8, 6:00 AM)
Low49 °F (Aug 21, 6:00 AM)38% (Aug 13, 1:00 PM)29.44 "Hg (Aug 18, 4:00 PM)
Average63 °F72%29.79 "Hg
* Reported Aug 6 7:00 PM — Aug 21 7:00 PM, Rostock, Weather by CustomWeather, © 2014

Note: Actual official high and low records may vary slightly from our data, if they occured in-between our weather recording intervals... More about our weather records

Advertising

Rostock weather history for previous 24 hours

 ConditionsComfort  
Time TempWeatherWind HumidityBarometerVisibility
7:00 PM
Aug 21
57 °FPartly sunny.5 mph69%29.93 "Hg31 mi
6:00 PM63 °FOvercast.5 mph50%29.93 "Hg37 mi
5:00 PM62 °FPartly sunny.7 mph57%29.94 "Hg34 mi
4:00 PM63 °FPartly sunny.7 mph59%29.93 "Hg31 mi
3:00 PM62 °FScattered clouds.8 mph59%29.94 "Hg31 mi
2:00 PM62 °FPartly sunny.7 mph57%29.94 "Hg31 mi
1:00 PM60 °FScattered clouds.6 mph54%29.94 "Hg34 mi
12:00 PM60 °FScattered clouds.7 mph55%29.94 "Hg28 mi
11:00 AM59 °FScattered clouds.5 mph65%29.94 "Hg28 mi
10:00 AM58 °FPassing clouds.6 mph68%29.94 "Hg28 mi
9:00 AM54 °FPassing clouds.5 mph77%29.93 "Hg25 mi
8:00 AM51 °FScattered clouds.5 mph84%29.93 "Hg19 mi
7:00 AM50 °FScattered clouds.5 mph89%29.92 "Hg19 mi
6:00 AM49 °FPassing clouds.5 mph90%29.92 "Hg19 mi
5:00 AM50 °FPassing clouds.5 mph89%29.92 "Hg22 mi
4:00 AM51 °FClear.5 mph88%29.92 "Hg28 mi
3:00 AM51 °FClear.5 mph86%29.92 "Hg31 mi
2:00 AM51 °FClear.5 mph86%29.92 "Hg31 mi
1:00 AM53 °FPassing clouds.5 mph84%29.91 "Hg31 mi
12:00 AM53 °FClear.5 mph85%29.91 "Hg34 mi
11:00 PM
Aug 20
54 °FPassing clouds.3 mph81%29.90 "Hg37 mi
10:00 PM55 °FPassing clouds.3 mph77%29.90 "Hg37 mi
9:00 PM57 °FPassing clouds.3 mph71%29.89 "Hg37 mi
8:00 PM59 °FScattered clouds.6 mph67%29.88 "Hg37 mi
Weather by CustomWeather, © 2014

See weather overviewHow to use our weather pages